User: anonymous
Location: Caltech
(34.1382°N, 118.1253°W)
Time: 07:01:13
(UTC-07:00)
Language:

Gbstr 26 Del rocket - Orbit

View from above orbital plane
View from above orbital plane
View from above satellite
View from above satellite

Ground track
Ground track

The orbit data is extracted from the following two-line orbital elements,

1 25876U 99041E   14244.78516854  .00000247  00000-0  82724-4 0  4513
2 25876 051.7688 015.1417 0539879 299.7399 211.8426 14.02166568771461
Epoch (UTC): 01 September 2014 18:50:38
Eccentricity: 0.0539879
inclination: 51.7688°
perigee height: 494 km
apogee height: 1278 km
right ascension of ascending node: 15.1417°
argument of perigee: 299.7399°
revolutions per day: 14.02166568
mean anomaly at epoch: 211.8426°
orbit number at epoch: 77146

The dashed part of the orbit path shows where the satellite is in the earth's shadow,  

DLR